| time (UTC) | temp F | wind direction | speed MPH | gust MPH | rain 1hr in | rain 24hr in | rain mn in | humidity % | barometer mb |
| 20260509194520 | 60 | 67 | 6.0 | 14.0 | 0.00 | 0.02 | 0.02 | 32 | 1014.0 |
| 20260509193026 | 59 | 36 | 7.0 | 16.0 | 0.00 | 0.02 | 0.02 | 37 | 1014.2 |
| 20260509191512 | 58 | 54 | 6.0 | 14.0 | 0.00 | 0.02 | 0.02 | 35 | 1014.0 |
| 20260509190035 | 58 | 19 | 6.0 | 14.0 | 0.00 | 0.02 | 0.02 | 35 | 1014.1 |
| 20260509184532 | 58 | 10 | 8.0 | 15.0 | 0.00 | 0.02 | 0.02 | 34 | 1014.1 |
| 20260509183029 | 57 | 26 | 8.0 | 13.0 | 0.00 | 0.02 | 0.02 | 35 | 1014.0 |
| 20260509181513 | 58 | 346 | 9.0 | 18.0 | 0.00 | 0.02 | 0.02 | 34 | 1014.1 |
| 20260509180021 | 57 | 11 | 8.0 | 14.0 | 0.00 | 0.02 | 0.02 | 35 | 1014.1 |
| 20260509174526 | 56 | 46 | 4.0 | 15.0 | 0.00 | 0.02 | 0.02 | 39 | 1014.1 |
| 20260509173026 | 55 | 26 | 5.0 | 14.0 | 0.00 | 0.02 | 0.02 | 42 | 1013.9 |
| 20260509171514 | 56 | 19 | 6.0 | 14.0 | 0.00 | 0.02 | 0.02 | 39 | 1013.9 |
| 20260509170028 | 55 | 23 | 5.0 | 16.0 | 0.00 | 0.02 | 0.02 | 41 | 1013.9 |
| 20260509164526 | 54 | 88 | 6.0 | 13.0 | 0.00 | 0.02 | 0.02 | 42 | 1013.7 |
| 20260509163029 | 55 | 46 | 4.0 | 12.0 | 0.00 | 0.02 | 0.02 | 45 | 1013.6 |
| 20260509161516 | 53 | 67 | 7.0 | 12.0 | 0.00 | 0.02 | 0.02 | 47 | 1013.4 |
| 20260509160020 | 53 | 60 | 5.0 | 16.0 | 0.00 | 0.02 | 0.02 | 45 | 1013.2 |
| 20260509154524 | 53 | 44 | 7.0 | 14.0 | 0.00 | 0.02 | 0.02 | 46 | 1013.0 |
| 20260509153032 | 52 | 25 | 5.0 | 17.0 | 0.00 | 0.02 | 0.02 | 47 | 1012.9 |
| 20260509151515 | 51 | 29 | 7.0 | 13.0 | 0.00 | 0.02 | 0.02 | 49 | 1012.7 |
| 20260509150028 | 50 | 44 | 5.0 | 14.0 | 0.00 | 0.02 | 0.02 | 52 | 1012.6 |
| 20260509144528 | 50 | 68 | 8.0 | 14.0 | 0.00 | 0.02 | 0.02 | 50 | 1012.4 |
| 20260509143028 | 50 | 28 | 8.0 | 14.0 | 0.00 | 0.02 | 0.02 | 55 | 1012.1 |
| 20260509141535 | 49 | 51 | 5.0 | 14.0 | 0.00 | 0.02 | 0.02 | 60 | 1011.9 |
| 20260509140032 | 48 | 78 | 8.0 | 14.0 | 0.00 | 0.02 | 0.02 | 62 | 1011.5 |
| 20260509134533 | 47 | 26 | 8.0 | 15.0 | 0.00 | 0.02 | 0.02 | 68 | 1011.3 |
| 20260509133033 | 47 | 76 | 6.0 | 12.0 | 0.00 | 0.02 | 0.02 | 72 | 1011.2 |
| 20260509131508 | 47 | 65 | 6.0 | 13.0 | 0.00 | 0.02 | 0.02 | 74 | 1010.9 |
| 20260509130005 | 46 | 79 | 7.0 | 12.0 | 0.00 | 0.02 | 0.02 | 75 | 1010.4 |
| 20260509124507 | 45 | 53 | 4.0 | 11.0 | 0.00 | 0.02 | 0.02 | 78 | 1010.1 |
| 20260509123003 | 44 | 44 | 5.0 | 10.0 | 0.00 | 0.02 | 0.02 | 81 | 1009.8 |
| 20260509121504 | 43 | 30 | 4.0 | 10.0 | 0.00 | 0.02 | 0.02 | 84 | 1009.5 |
| 20260509120006 | 43 | 32 | 4.0 | 10.0 | 0.00 | 0.02 | 0.02 | 85 | 1009.2 |
| 20260509114510 | 43 | 58 | 3.0 | 10.0 | 0.00 | 0.02 | 0.02 | 86 | 1009.1 |
| 20260509113002 | 43 | 36 | 3.0 | 10.0 | 0.00 | 0.02 | 0.02 | 86 | 1008.8 |
| 20260509111504 | 44 | 21 | 3.0 | 11.0 | 0.00 | 0.02 | 0.02 | 86 | 1008.6 |
| 20260509110019 | 45 | 41 | 4.0 | 9.0 | 0.00 | 0.02 | 0.02 | 86 | 1008.5 |
| 20260509104514 | 45 | 32 | 2.0 | 9.0 | 0.00 | 0.02 | 0.02 | 86 | 1008.2 |
| 20260509103025 | 46 | 26 | 4.0 | 10.0 | 0.00 | 0.02 | 0.02 | 85 | 1008.0 |
| 20260509101508 | 46 | 13 | 5.0 | 11.0 | 0.00 | 0.02 | 0.02 | 85 | 1007.9 |
| 20260509100011 | 47 | 55 | 5.0 | 14.0 | 0.00 | 0.02 | 0.02 | 85 | 1007.6 |
| 20260509094516 | 48 | 49 | 4.0 | 12.0 | 0.00 | 0.02 | 0.02 | 84 | 1007.2 |
| 20260509093026 | 49 | 26 | 8.0 | 14.0 | 0.01 | 0.02 | 0.02 | 82 | 1006.8 |
| 20260509091508 | 50 | 10 | 7.0 | 13.0 | 0.02 | 0.02 | 0.02 | 79 | 1006.8 |
| 20260509090009 | 51 | 5 | 2.0 | 8.0 | 0.02 | 0.02 | 0.02 | 79 | 1006.5 |
| 20260509084516 | 51 | 5 | 1.0 | 9.0 | 0.02 | 0.02 | 0.02 | 78 | 1006.7 |
| 20260509083021 | 51 | 15 | 1.0 | 7.0 | 0.01 | 0.01 | 0.01 | 78 | 1006.2 |
| 20260509081508 | 51 | 65 | 0.0 | 0.0 | 0.00 | 0.00 | 0.00 | 80 | 1005.8 |
| 20260509080010 | 51 | 65 | 0.0 | 0.0 | 0.00 | 0.00 | 0.00 | 77 | 1006.1 |
| 20260509074520 | 52 | 65 | 0.0 | 2.0 | 0.00 | 0.00 | 0.00 | 73 | 1006.0 |
| 20260509073023 | 52 | 64 | 1.0 | 6.0 | 0.00 | 0.00 | 0.00 | 71 | 1005.8 |
| 20260509071508 | 53 | 56 | 4.0 | 10.0 | 0.00 | 0.00 | 0.00 | 70 | 1005.7 |
| 20260509070009 | 53 | 74 | 6.0 | 13.0 | 0.00 | 0.00 | 0.00 | 68 | 1005.7 |
| 20260509064518 | 54 | 36 | 10.0 | 21.0 | 0.00 | 0.00 | 0.00 | 65 | 1005.8 |
| 20260509063026 | 55 | 67 | 7.0 | 22.0 | 0.00 | 0.00 | 0.00 | 61 | 1005.1 |
| 20260509061526 | 56 | 5 | 7.0 | 16.0 | 0.00 | 0.00 | 0.00 | 56 | 1004.9 |
| 20260509060017 | 56 | 35 | 5.0 | 14.0 | 0.00 | 0.00 | 0.00 | 51 | 1004.4 |
| 20260509054525 | 57 | 23 | 3.0 | 9.0 | 0.00 | 0.00 | 0.00 | 46 | 1004.3 |
| 20260509053101 | 57 | 324 | 10.0 | 19.0 | 0.00 | 0.00 | 0.00 | 42 | 1004.0 |
| 20260509051527 | 57 | 305 | 2.0 | 11.0 | 0.00 | 0.00 | 0.00 | 41 | 1003.3 |
| 20260509050034 | 56 | 271 | 7.0 | 12.0 | 0.00 | 0.00 | 0.00 | 41 | 1003.4 |
| 20260509044522 | 55 | 284 | 5.0 | 12.0 | 0.00 | 0.00 | 0.00 | 42 | 1003.3 |
| 20260509043025 | 54 | 257 | 4.0 | 13.0 | 0.00 | 0.00 | 0.00 | 46 | 1003.3 |
| 20260509041512 | 53 | 267 | 3.0 | 9.0 | 0.00 | 0.00 | 0.00 | 47 | 1003.4 |
| 20260509040018 | 54 | 264 | 4.0 | 9.0 | 0.00 | 0.00 | 0.00 | 46 | 1003.7 |
| 20260509034522 | 54 | 257 | 4.0 | 8.0 | 0.00 | 0.00 | 0.00 | 45 | 1003.8 |
| 20260509033024 | 55 | 270 | 3.0 | 7.0 | 0.00 | 0.00 | 0.00 | 45 | 1003.8 |
| 20260509031512 | 56 | 298 | 0.0 | 3.0 | 0.00 | 0.00 | 0.00 | 44 | 1003.8 |
| 20260509030028 | 58 | 298 | 1.0 | 3.0 | 0.00 | 0.00 | 0.00 | 41 | 1003.8 |
| 20260509024521 | 60 | 298 | 0.0 | 2.0 | 0.00 | 0.00 | 0.00 | 38 | 1004.0 |
| 20260509023035 | 61 | 298 | 2.0 | 5.0 | 0.00 | 0.00 | 0.00 | 36 | 1004.0 |
| 20260509021513 | 62 | 316 | 1.0 | 3.0 | 0.00 | 0.00 | 0.00 | 35 | 1004.0 |
| 20260509020016 | 63 | 316 | 2.0 | 4.0 | 0.00 | 0.00 | 0.00 | 34 | 1004.3 |
| 20260509014523 | 65 | 350 | 0.0 | 2.0 | 0.00 | 0.00 | 0.00 | 32 | 1004.4 |
| 20260509013029 | 66 | 350 | 1.0 | 4.0 | 0.00 | 0.00 | 0.00 | 31 | 1004.6 |
| 20260509011514 | 67 | 350 | 2.0 | 5.0 | 0.00 | 0.00 | 0.00 | 30 | 1004.6 |
| 20260509010021 | 67 | 355 | 1.0 | 6.0 | 0.00 | 0.00 | 0.00 | 28 | 1004.7 |
| 20260509004527 | 68 | 360 | 1.0 | 8.0 | 0.00 | 0.00 | 0.00 | 27 | 1004.9 |
| 20260509003042 | 68 | 308 | 2.0 | 8.0 | 0.00 | 0.00 | 0.00 | 28 | 1005.0 |
| 20260509001515 | 69 | 28 | 8.0 | 15.0 | 0.00 | 0.00 | 0.00 | 27 | 1005.2 |
| 20260509000019 | 69 | 5 | 4.0 | 11.0 | 0.00 | 0.00 | 0.00 | 27 | 1005.3 |
| 20260508234527 | 69 | 317 | 7.0 | 14.0 | 0.00 | 0.00 | 0.00 | 27 | 1005.4 |
| 20260508233026 | 70 | 19 | 6.0 | 17.0 | 0.00 | 0.00 | 0.00 | 26 | 1005.5 |
| 20260508231530 | 70 | 36 | 9.0 | 17.0 | 0.00 | 0.00 | 0.00 | 26 | 1005.7 |
| 20260508230026 | 69 | 346 | 10.0 | 18.0 | 0.00 | 0.00 | 0.00 | 27 | 1005.8 |
| 20260508224528 | 70 | 15 | 9.0 | 18.0 | 0.00 | 0.00 | 0.00 | 26 | 1006.0 |
| 20260508223028 | 70 | 33 | 8.0 | 25.0 | 0.00 | 0.00 | 0.00 | 26 | 1005.8 |
| 20260508221506 | 70 | 32 | 8.0 | 21.0 | 0.00 | 0.00 | 0.00 | 24 | 1005.9 |
| 20260508220004 | 70 | 10 | 13.0 | 21.0 | 0.00 | 0.00 | 0.00 | 24 | 1005.8 |
| 20260508214507 | 71 | 10 | 7.0 | 21.0 | 0.00 | 0.00 | 0.00 | 25 | 1005.9 |
| 20260508213002 | 71 | 348 | 8.0 | 24.0 | 0.00 | 0.00 | 0.00 | 23 | 1005.9 |
| 20260508211503 | 71 | 33 | 10.0 | 21.0 | 0.00 | 0.00 | 0.00 | 24 | 1005.9 |
| 20260508210006 | 71 | 29 | 12.0 | 22.0 | 0.00 | 0.00 | 0.00 | 24 | 1005.8 |
| 20260508204510 | 71 | 57 | 10.0 | 24.0 | 0.00 | 0.00 | 0.00 | 23 | 1005.8 |
| 20260508203002 | 71 | 27 | 9.0 | 18.0 | 0.00 | 0.00 | 0.00 | 23 | 1005.8 |
| 20260508201504 | 71 | 343 | 9.0 | 21.0 | 0.00 | 0.00 | 0.00 | 24 | 1005.9 |
| 20260508200007 | 71 | 144 | 6.0 | 21.0 | 0.00 | 0.00 | 0.00 | 27 | 1005.8 |